[[{"header":{"parameterUnit":"m.s-1","parameterCategory":1,"la1":30.2991,"la2":30.254,"lo1":-89.0895,"lo2":-89.0444,"dy":0.0017,"dx":0.0017,"nx":28,"ny":28,"refTime":"2026-02-09T09:00:00:Z","depth":0,"parameterNumber":2,"parameterNumberName":"U-component_of_WINDS"},"data":[0,0,0,0,0,0,0,0,0,0,0,0,0,0,0,0,0,0,0,0,0,0,0,0,0,0,0,0,0,0,0,0,0,0,0,0,0,0,0,0,0,0,0,0,0,0,0,0,0,0,0,0,0,0,0,0,0,0,-1.7176,-1.7176,0,-1.7171,-1.7171,-1.7171,-1.7113,-1.7111,-1.711,-1.7108,-1.7104,-1.7105,-1.7107,0,0,0,0,0,0,0,0,0,0,0,0,0,-1.7137,-1.7138,-1.7176,-1.7176,-1.7176,-1.7171,-1.7171,-1.7171,-1.7113,-1.7111,-1.7109,-1.7108,-1.7104,-1.7105,-1.7107,0,0,0,0,0,0,0,0,0,0,0,0,0,-1.7145,-1.7138,-1.7176,-1.7146,-1.7144,-1.7171,-1.7171,-1.7171,-1.7113,-1.7111,-1.7109,-1.7107,-1.7103,-1.7105,-1.7107,-1.7163,0,0,-1.7113,-1.7114,0,0,0,0,0,0,0,0,-1.7145,-1.7147,-1.7151,-1.7149,-1.7146,-1.714,-1.7156,-1.7168,-1.7114,-1.7125,-1.7108,-1.7106,-1.7118,-1.7119,-1.7122,-1.7163,-1.7162,-1.7113,-1.7114,-1.7115,-1.7115,0,0,0,0,0,0,0,-1.7144,-1.7146,-1.7174,-1.7151,-1.7148,-1.7134,-1.7133,-1.7158,-1.7134,-1.7124,-1.712,-1.712,-1.7116,-1.7121,-1.7122,-1.7162,-1.7113,-1.7115,-1.7116,-1.7116,-1.7248,-1.725,0,0,0,0,0,0,-1.7148,-1.7146,-1.7174,-1.7174,-1.714,-1.7136,-1.7135,-1.7144,-1.7133,-1.713,-1.7122,-1.7117,-1.7119,-1.712,-1.7122,-1.7186,-1.7115,-1.7117,-1.7118,-1.7246,-1.7248,-1.7251,0,0,0,0,0,0,-1.7147,-1.7151,-1.7175,-1.7159,-1.7161,-1.7139,-1.715,-1.7145,-1.715,-1.7132,-1.7127,-1.7131,-1.7117,-1.7119,-1.7153,-1.7185,-1.7117,-1.7119,-1.7243,-1.7246,-1.725,-1.7315,0,0,0,0,0,0,-1.7146,-1.7151,-1.7171,-1.716,-1.7162,-1.7206,-1.7152,-1.7147,-1.7153,-1.7147,-1.7139,-1.7136,-1.7115,-1.715,-1.7155,-1.7186,-1.7121,-1.724,-1.7244,-1.7249,-1.731,-1.732,-1.7329,0,0,0,0,0,-1.7145,-1.719,-1.7173,-1.7176,-1.7187,-1.7208,-1.7209,-1.7184,-1.7156,-1.7177,-1.7165,-1.7136,-1.7181,-1.7154,-1.7159,-1.7191,-1.7238,-1.7243,-1.7248,-1.7305,-1.7318,-1.7329,0,0,0,0,0,0,-1.7206,-1.7188,-1.7168,-1.7211,-1.7211,-1.7198,-1.7223,-1.7199,-1.7207,-1.7201,-1.7171,-1.7169,-1.7208,-1.7203,-1.7174,-1.7245,-1.7204,-1.7211,-1.7246,-1.7258,-1.7268,-1.7267,-1.7122,0,0,0,0,0,-1.7224,-1.7242,-1.7225,-1.7265,-1.7266,-1.7245,-1.7253,-1.7234,-1.7233,-1.7233,-1.7223,-1.7224,-1.7238,-1.7248,-1.726,-1.7309,-1.7306,-1.7334,-1.7344,-1.7352,-1.7357,-1.7383,-1.7394,-1.7268,-1.7268,-1.7268,0,0,-1.7262,-1.7255,-1.7268,-1.7277,-1.7275,-1.7294,-1.7245,-1.7267,-1.7281,-1.7236,-1.7267,-1.7261,-1.7259,-1.7301,-1.7319,-1.7298,-1.7392,-1.7358,-1.7365,-1.7366,-1.7389,-1.7401,-1.7412,-1.7272,-1.7271,-1.7271,0,0,-1.7341,-1.7338,-1.737,-1.7369,-1.7366,-1.7352,-1.736,-1.735,-1.7344,-1.7375,-1.7341,-1.7358,-1.7383,-1.7383,-1.7387,-1.7467,-1.7441,-1.7472,-1.7522,-1.7548,-1.7557,-1.7566,-1.7594,-1.7605,-1.7478,-1.7478,-1.7479,0,-1.7389,-1.7416,-1.7389,-1.7414,-1.7419,-1.7379,-1.7412,-1.7412,-1.7414,-1.7419,-1.7395,-1.7426,-1.7423,-1.7464,-1.7483,-1.7488,-1.7496,-1.7472,-1.7558,-1.7567,-1.7574,-1.7601,-1.7611,-1.7482,-1.7482,-1.7481,-1.7481,0,-1.7474,-1.7494,-1.752,-1.7523,-1.7531,-1.7559,-1.7538,-1.7549,-1.753,-1.7519,-1.7551,-1.7545,-1.7556,-1.7564,-1.7546,-1.7603,-1.759,-1.7564,-1.7522,-1.759,-1.7615,-1.7625,-1.7488,-1.7486,-1.7485,-1.7484,0,0,-1.759,-1.7578,-1.7588,-1.7588,-1.7583,-1.7598,-1.7625,-1.7635,-1.7645,-1.7649,-1.767,-1.7693,-1.7668,-1.7672,-1.7654,-1.7677,-1.774,-1.7647,-1.7646,-1.7663,-1.7802,-1.7821,-1.7833,-1.7723,-1.7725,-1.7726,-1.7802,0,-1.7665,-1.771,-1.7687,-1.7735,-1.7753,-1.7716,-1.774,-1.7739,-1.773,-1.7744,-1.7733,-1.7749,-1.7716,-1.7718,-1.7738,-1.7728,-1.7767,-1.7722,-1.7743,-1.7744,-1.7743,-1.7846,-1.7867,-1.7938,-1.7811,-1.7813,-1.7814,0,-1.7758,-1.7765,-1.7815,-1.7806,-1.7813,-1.7835,-1.7842,-1.7856,-1.7855,-1.7847,-1.7852,-1.7828,-1.7855,-1.7815,-1.7851,-1.7821,-1.7828,-1.7825,-1.7827,-1.7827,-1.7782,-1.7848,-1.796,-1.7971,-1.7829,-1.7828,-1.7827,0,-1.7836,-1.7858,-1.789,-1.7892,-1.7884,-1.79,-1.7897,-1.7894,-1.7902,-1.7909,-1.7913,-1.7924,-1.7929,-1.7937,-1.7918,-1.7891,-1.7956,-1.7915,-1.795,-1.795,-1.7964,-1.7963,-1.8078,-1.7971,-1.7971,-1.7971,-1.7971,0,-1.7922,-1.7953,-1.7925,-1.7945,-1.798,-1.7954,-1.7989,-1.7983,-1.7981,-1.7999,-1.7968,-1.7986,-1.7959,-1.7975,-1.796,-1.7992,-1.7995,-1.7988,-1.7984,-1.799,-1.7991,-1.7993,-1.7987,-1.7974,-1.7973,-1.7972,-1.7972,0,-1.8014,-1.7997,-1.8029,-1.8019,-1.8017,-1.8043,-1.8034,-1.8052,-1.8041,-1.8065,-1.8069,-1.8051,-1.8068,-1.8049,-1.8065,-1.8054,-1.8097,-1.8086,-1.8097,-1.8093,-1.8129,-1.8125,-1.8248,-1.8263,-1.8148,-1.8149,-1.815,0,-1.8069,-1.8092,-1.8085,-1.8095,-1.8094,-1.811,-1.8118,-1.8094,-1.8103,-1.8105,-1.8123,-1.8137,-1.8146,-1.8175,-1.8163,-1.8175,-1.8163,-1.8206,-1.8165,-1.817,-1.8162,-1.8161,-1.8163,-1.8213,-1.8215,-1.8216,-1.8217,0,-1.8168,-1.8159,-1.817,-1.818,-1.819,-1.8196,-1.82,-1.821,-1.8185,-1.8197,-1.8214,-1.8221,-1.8237,-1.8251,-1.826,-1.8257,-1.8233,-1.823,-1.8238,-1.8245,-1.825,-1.8246,-1.8119,-1.8227,-1.8226,-1.8225,-1.8225,-1.8224,-1.8243,-1.8262,-1.8259,-1.8274,-1.8274,-1.8279,-1.8295,-1.8286,-1.8299,-1.831,-1.8296,-1.8316,-1.8315,-1.8324,-1.8325,-1.8341,-1.8323,-1.8335,-1.8338,-1.8341,-1.8346,-1.8249,-1.8342,-1.8342,-1.8342,-1.8342,-1.8341,0,-1.8339,-1.8336,-1.835,-1.8356,-1.8368,-1.8344,-1.8348,-1.8359,-1.8377,-1.8378,-1.8389,-1.8408,-1.8422,-1.8412,-1.8424,-1.8439,-1.8428,-1.8442,-1.844,-1.844,-1.8362,-1.8353,-1.8451,-1.8451,-1.8451,-1.8451,-1.8451,-1.8451,-1.8391,-1.8421,-1.8412,-1.8443,-1.844,-1.8459,-1.8463,-1.8467,-1.8468,-1.849,-1.8502,-1.8496,-1.8493,-1.8504,-1.8516,-1.8513,-1.8518,-1.8536,-1.8529,-1.8456,-1.8445,-1.8435,-1.8426,-1.8538,-1.8538,-1.8606,-1.8606,-1.8607]},{"header":{"parameterUnit":"m.s-1","parameterCategory":1,"la1":30.2991,"la2":30.254,"lo1":-89.0895,"lo2":-89.0444,"dy":0.0017,"dx":0.0017,"nx":28,"ny":28,"refTime":"2026-02-09T09:00:00:Z","depth":0,"parameterNumber":3,"parameterNumberName":"V-component_of_WINDS"},"data":[0,0,0,0,0,0,0,0,0,0,0,0,0,0,0,0,0,0,0,0,0,0,0,0,0,0,0,0,0,0,0,0,0,0,0,0,0,0,0,0,0,0,0,0,0,0,0,0,0,0,0,0,0,0,0,0,0,0,1.0128,1.0127,0,1.0075,1.0074,1.0073,1.0066,1.0067,1.0067,1.0067,1.0013,1.0011,1.0009,0,0,0,0,0,0,0,0,0,0,0,0,0,1.0226,1.0224,1.0128,1.0127,1.0127,1.0075,1.0074,1.0073,1.0066,1.0067,1.0067,1.0068,1.0013,1.0011,1.0009,0,0,0,0,0,0,0,0,0,0,0,0,0,1.0179,1.0224,1.0128,1.0117,1.0115,1.0075,1.0074,1.0073,1.0066,1.0067,1.0067,1.0068,1.0014,1.0011,1.0008,0.9975,0,0,1.0,0.9998,0,0,0,0,0,0,0,0,1.0182,1.0175,1.0119,1.0118,1.0116,1.0078,1.0088,1.004,1.0066,1.0085,1.0068,1.0068,1.0034,1.0029,1.0018,0.9973,0.9971,0.9999,0.9998,0.9996,0.9995,0,0,0,0,0,0,0,1.0185,1.0178,1.0107,1.0118,1.0116,1.0115,1.0109,1.0079,1.0056,1.0083,1.0082,1.0076,1.0033,1.002,1.0016,0.997,0.9999,0.9997,0.9995,0.9994,0.9899,0.9898,0,0,0,0,0,0,1.019,1.018,1.0109,1.0105,1.0151,1.0113,1.0106,1.0089,1.0056,1.0052,1.0076,1.0076,1.0025,1.002,1.0014,0.9975,0.9996,0.9994,0.9992,0.99,0.9899,0.9898,0,0,0,0,0,0,1.0192,1.0184,1.0111,1.0143,1.0133,1.011,1.0091,1.0088,1.0075,1.005,1.0046,1.0067,1.0025,1.0018,0.9986,0.9973,0.9992,0.999,0.99,0.9899,0.9898,0.9896,0,0,0,0,0,0,1.0195,1.0185,1.0171,1.0142,1.0132,1.0082,1.009,1.0086,1.007,1.007,1.0041,1.0037,1.0025,0.999,0.9983,0.997,0.9987,0.9901,0.99,0.9899,0.9897,0.9895,0.9893,0,0,0,0,0,1.0199,1.0172,1.017,1.0162,1.0114,1.0082,1.0076,1.0063,1.0069,1.0056,1.0041,1.0038,0.9976,0.9987,0.9979,0.9964,0.9902,0.99,0.9899,0.9898,0.9896,0.9893,0,0,0,0,0,0,1.0199,1.0168,1.0166,1.0129,1.0108,1.0081,1.0063,1.006,1.0037,1.0038,1.0023,1.0017,0.9985,0.9972,0.9984,0.9932,0.994,0.9936,0.9942,0.994,0.9938,0.9942,0.9985,0,0,0,0,0,1.0195,1.0171,1.0145,1.0115,1.0105,1.0086,1.0071,1.0064,1.0041,1.0032,1.0014,0.9993,0.9969,0.9954,0.993,0.9896,0.989,0.9882,0.988,0.9878,0.9876,0.9859,0.9855,0.9892,0.9892,0.9892,0,0,1.0186,1.0166,1.0151,1.0115,1.0098,1.0074,1.0079,1.0052,1.0035,1.0028,0.9997,0.9984,0.9959,0.9926,0.9911,0.9914,0.9865,0.9876,0.9875,0.9873,0.9857,0.9853,0.985,0.9891,0.9891,0.9891,0,0,1.0157,1.0139,1.0114,1.0097,1.0072,1.006,1.0054,1.0027,1.0018,0.9987,0.9982,0.9962,0.992,0.9904,0.989,0.9859,0.9856,0.9852,0.9841,0.9825,0.9822,0.982,0.981,0.9807,0.9849,0.9849,0.9849,0,1.0149,1.0113,1.0101,1.0076,1.0061,1.0055,1.003,1.0014,0.9982,0.9972,0.9976,0.9926,0.9909,0.9873,0.9866,0.9855,0.9849,0.9855,0.9824,0.9821,0.9818,0.9809,0.9805,0.9849,0.9849,0.9849,0.9849,0,1.0105,1.008,1.0063,1.0033,1.0016,0.9991,0.9977,0.9961,0.9956,0.9944,0.9914,0.9893,0.9867,0.9858,0.9851,0.9822,0.9825,0.9826,0.9834,0.9815,0.9806,0.9802,0.9848,0.9848,0.9849,0.9849,0,0,1.0073,1.004,1.0034,1.0022,0.9995,0.9975,0.9951,0.9926,0.9914,0.9893,0.9873,0.984,0.9842,0.9826,0.9819,0.9804,0.9784,0.9808,0.9807,0.9805,0.9752,0.9752,0.9748,0.9782,0.9781,0.9781,0.9755,0,1.0043,0.9999,0.9989,0.9952,0.993,0.9926,0.9905,0.9887,0.9876,0.9857,0.9845,0.9822,0.9826,0.9817,0.9802,0.9789,0.9773,0.9791,0.9765,0.9764,0.9771,0.9743,0.9741,0.9718,0.9751,0.975,0.975,0,1.0001,0.998,0.9941,0.992,0.991,0.9892,0.9869,0.985,0.9831,0.9824,0.9808,0.9803,0.9779,0.9788,0.9756,0.9768,0.9757,0.975,0.9748,0.9746,0.9756,0.974,0.9709,0.9706,0.9744,0.9745,0.9745,0,0.9983,0.9946,0.9919,0.9908,0.9882,0.9869,0.9858,0.9839,0.9826,0.9806,0.9797,0.9775,0.9763,0.9747,0.9736,0.9744,0.9706,0.9713,0.9701,0.9701,0.9692,0.9693,0.9661,0.9685,0.9685,0.9685,0.9685,0,0.995,0.9927,0.9911,0.9894,0.9869,0.9858,0.9833,0.9822,0.9806,0.9788,0.9783,0.9766,0.9753,0.9734,0.9726,0.9702,0.9696,0.9691,0.9689,0.9692,0.9693,0.9684,0.9686,0.9684,0.9684,0.9684,0.9684,0,0.9926,0.9914,0.9884,0.9863,0.9857,0.984,0.9822,0.9806,0.9796,0.9773,0.9768,0.9752,0.973,0.9719,0.9691,0.9686,0.9659,0.9658,0.9666,0.9665,0.9654,0.9656,0.9615,0.961,0.9637,0.9637,0.9636,0,0.9906,0.9889,0.9866,0.9854,0.9843,0.9822,0.9809,0.9799,0.9785,0.9764,0.9751,0.9729,0.9712,0.9678,0.9665,0.9644,0.9643,0.963,0.964,0.9644,0.9644,0.9646,0.9645,0.9629,0.9628,0.9628,0.9628,0,0.9872,0.9868,0.9849,0.9829,0.9813,0.9797,0.978,0.977,0.9758,0.9743,0.9722,0.9708,0.9682,0.9661,0.964,0.9629,0.9627,0.9626,0.9622,0.9624,0.963,0.9628,0.9662,0.9626,0.9626,0.9627,0.9627,0.9627,0.985,0.9835,0.9818,0.9798,0.9785,0.977,0.9755,0.9744,0.9726,0.9704,0.9699,0.9677,0.9661,0.9633,0.9622,0.9605,0.9607,0.9602,0.96,0.9599,0.9599,0.9633,0.9601,0.9601,0.9601,0.9601,0.9601,0,0.9817,0.9807,0.9788,0.9766,0.9751,0.9751,0.9733,0.9721,0.9701,0.9686,0.967,0.9646,0.9627,0.9613,0.9594,0.9583,0.9582,0.9579,0.9579,0.9577,0.9598,0.9603,0.958,0.958,0.958,0.958,0.958,0.958,0.9798,0.9774,0.9768,0.9738,0.9727,0.9706,0.9696,0.9684,0.9672,0.9646,0.963,0.9622,0.9608,0.9588,0.9571,0.9567,0.9561,0.9558,0.9554,0.9573,0.9576,0.9578,0.9583,0.9556,0.9556,0.9536,0.9535,0.9535]}]]